Bloomington, IL

8:59 AM CST on January 22, 2018 (GMT -0600)
Central Ill Regional

Weather History for KBMI - August, 2014

Change the Weather History Date:

Wednesday, August 27, 2014

  Actual Average Record
Temperature  
Mean Temperature 76 °F -  
Max Temperature 84 °F 87 °F 93 °F (2003)
Min Temperature 66 °F 79 °F 52 °F (2015)
Cooling Degree Days 11    
Growing Degree Days 26 (Base 50)    
Moisture  
Dew Point 67 °F    
Average Humidity 80    
Maximum Humidity 96    
Minimum Humidity 59    
Precipitation  
Precipitation 0.00 in - - ()
Sea Level Pressure  
Sea Level Pressure 30.09 in    
Wind  
Wind Speed 6 mph (NE)    
Max Wind Speed 12 mph    
Max Gust Speed -    
Visibility 10 miles    
Events      
Averages and records for this station are not official NWS values.
T = Trace of Precipitation, MM = Missing Value Source: NWS Daily Summary

Daily Weather History Graph

Daily Weather History Graph

Search for Another Location

Airport or City:

Trip Planner

Search our weather history database for the weather conditions in past years. The results will help you decide how hot, cold, wet, or windy it might be!

Date:

Astronomy

Aug. 27, 2014 Rise Set
Actual Time 6:18 AM CDT 7:35 PM CDT
Civil Twilight 5:49 AM CDT 8:03 PM CDT
Nautical Twilight 5:15 AM CDT 8:37 PM CDT
Astronomical Twilight 4:40 AM CDT 9:13 PM CDT
Moon 8:14 AM CDT (8/27) 8:26 PM CDT (8/27)
Length of Visible Light 14h 13m
Length of Day
13h 17m
Waxing Crescent, 4% of the Moon is Illuminated
Aug 27
Waxing Crescent
Sep 2
First Quarter
Sep 8
Full
Sep 15
Last Quarter
Sep 24
New

Hourly Weather History & Observations

Time (CDT) Temp. Heat Index Dew Point Humidity Pressure Visibility Wind Dir Wind Speed Gust Speed Precip Events Conditions
12:56 AM 68.9 °F - 64.9 °F 87% 30.09 in 10.0 mi ENE 3.5 mph - N/A   Clear
1:56 AM 68.9 °F - 64.9 °F 87% 30.07 in 10.0 mi Calm Calm - N/A   Clear
2:56 AM 72.0 °F - 66.9 °F 84% 30.07 in 10.0 mi Calm Calm - N/A   Clear
3:56 AM 70.0 °F - 65.8 °F 87% 30.07 in 10.0 mi North 5.8 mph - N/A   Partly Cloudy
4:56 AM 68.9 °F - 65.8 °F 90% 30.08 in 10.0 mi NNE 6.9 mph - N/A   Mostly Cloudy
5:04 AM 69.8 °F - 66.2 °F 88% 30.12 in 10.0 mi NNE 9.2 mph - N/A   Mostly Cloudy
5:35 AM 69.8 °F - 66.2 °F 88% 30.11 in 7.0 mi NNE 9.2 mph - N/A   Scattered Clouds
5:56 AM 68.0 °F - 66.9 °F 96% 30.08 in 6.0 mi NE 6.9 mph - N/A   Scattered Clouds
6:27 AM 68.0 °F - 66.2 °F 94% 30.13 in 8.0 mi NE 8.1 mph - N/A   Mostly Cloudy
6:56 AM 68.9 °F - 65.8 °F 90% 30.09 in 8.0 mi NE 9.2 mph - N/A   Mostly Cloudy
7:56 AM 70.0 °F - 65.8 °F 87% 30.11 in 10.0 mi NE 11.5 mph - N/A   Partly Cloudy
8:56 AM 72.9 °F - 64.9 °F 76% 30.11 in 10.0 mi East 11.5 mph - N/A   Clear
9:56 AM 77.0 °F - 68.0 °F 74% 30.12 in 10.0 mi East 6.9 mph - N/A   Clear
10:56 AM 79.9 °F - 70.0 °F 72% 30.11 in 10.0 mi Calm Calm - N/A   Clear
11:56 AM 81.9 °F 85.2 °F 68.9 °F 65% 30.11 in 10.0 mi NE 6.9 mph - N/A   Scattered Clouds
12:56 PM 81.9 °F 85.2 °F 68.9 °F 65% 30.11 in 10.0 mi NNE 5.8 mph - N/A   Partly Cloudy
1:56 PM 82.9 °F 87.0 °F 70.0 °F 65% 30.10 in 10.0 mi ENE 5.8 mph - N/A   Partly Cloudy
2:56 PM 84.9 °F 88.8 °F 68.9 °F 59% 30.09 in 10.0 mi NE 9.2 mph - N/A   Partly Cloudy
3:56 PM 81.9 °F 84.2 °F 66.9 °F 60% 30.08 in 10.0 mi North 9.2 mph - N/A   Partly Cloudy
4:56 PM 79.9 °F - 68.0 °F 67% 30.08 in 10.0 mi North 6.9 mph - N/A   Partly Cloudy
5:56 PM 79.9 °F - 68.9 °F 69% 30.06 in 10.0 mi NE 11.5 mph - N/A   Partly Cloudy
6:56 PM 77.0 °F - 68.0 °F 74% 30.05 in 10.0 mi ENE 5.8 mph - N/A   Clear
7:56 PM 72.9 °F - 66.9 °F 82% 30.07 in 10.0 mi NE 5.8 mph - N/A   Clear
8:56 PM 70.0 °F - 65.8 °F 87% 30.08 in 10.0 mi East 4.6 mph - N/A   Clear
9:56 PM 68.9 °F - 64.9 °F 87% 30.08 in 10.0 mi ESE 4.6 mph - N/A   Clear
10:56 PM 68.9 °F - 64.9 °F 87% 30.08 in 10.0 mi ENE 8.1 mph - N/A   Mostly Cloudy
11:56 PM 66.9 °F - 63.0 °F 87% 30.08 in 10.0 mi NE 8.1 mph - N/A   Clear